Home   Weather   Riverview   Past weeks

Flag for Canada Past Weather in Riverview, New Brunswick, Canada — Yesterday and Last 2 Weeks

Now
39 °F

Light rain. Overcast.


Feels Like: 34 °F
Forecast: 43 / 56 °F
Wind: 7 mph from Southeast

Location: Moncton

Current Time: Apr 26, 2017 at 7:15:56 am

Latest Report: Apr 26, 2017 at 6:00 am


Visibility: 10 mi

Pressure: 30.29 "Hg

Humidity: 87%

Dew Point: 36 °F

Location of RiverviewLocation

Past Weather in Riverview — Graph

°F

Riverview Temperature Yesterday

Maximum temperature yesterday: 52 °F (at 2:00 pm)
Minimum temperature yesterday: 27 °F (at 2:00 am)
Average temperature yesterday: 39 °F

High & Low Weather Summary for the Past Weeks

 TemperatureHumidityPressure
High68 °F (Apr 11, 1:00 pm)100% (Apr 12, 7:00 am)30.69 "Hg (Apr 12, 7:00 am)
Low21 °F (Apr 19, 2:00 am)25% (Apr 19, 4:38 pm)29.65 "Hg (Apr 16, 2:00 pm)
Average39 °F75%30.14 "Hg
* Reported Apr 11 6:00 am — Apr 26 6:00 am, Riverview, Weather by CustomWeather, © 2017

Note: Actual official high and low records may vary slightly from our data, if they occured in-between our weather recording intervals... More about our weather records

Advertising

Riverview Weather History for the Previous 24 Hours

Scroll right to see more
 ConditionsComfort  
Time TempWeatherWind HumidityBarometerVisibility
6:00 am
Wed, Apr 26
39 °FLight rain. Overcast.7 mph87%30.29 "Hg10 mi
5:00 am41 °FLight rain. Overcast.13 mph70%30.30 "Hg15 mi
4:00 am43 °FLight rain. Overcast.14 mph57%30.32 "Hg15 mi
3:28 am45 °FOvercast.7 mph49%30.34 "Hg15 mi
3:00 am43 °FLight rain. Mostly cloudy.7 mph53%30.34 "Hg15 mi
2:00 am43 °FLight rain. Overcast.10 mph53%30.37 "Hg15 mi
1:48 am45 °FLight rain. Overcast.12 mph49%30.38 "Hg15 mi
1:00 am43 °FOvercast.10 mph53%30.39 "Hg15 mi
12:36 am41 °FOvercast.5 mph61%30.39 "Hg15 mi
12:00 am41 °FLight snow. Overcast.7 mph57%30.40 "Hg15 mi
11:00 pm
Tue, Apr 25
39 °FMostly cloudy.7 mph52%30.41 "Hg15 mi
10:00 pm39 °FMostly cloudy.6 mph48%30.42 "Hg15 mi
9:00 pm43 °FMostly cloudy.12 mph42%30.42 "Hg15 mi
8:00 pm43 °FMostly cloudy.10 mph46%30.42 "Hg15 mi
7:34 pm46 °FMostly cloudy.14 mph40%30.42 "Hg15 mi
7:00 pm48 °FMostly cloudy.8 mph40%30.42 "Hg15 mi
6:00 pm50 °FBroken clouds.10 mph35%30.42 "Hg15 mi
5:00 pm52 °FPartly sunny.9 mph35%30.42 "Hg15 mi
4:00 pm50 °FPartly sunny.13 mph37%30.44 "Hg15 mi
3:00 pm52 °FBroken clouds.12 mph35%30.45 "Hg15 mi
2:00 pm52 °FBroken clouds.8 mph26%30.47 "Hg15 mi
1:00 pm46 °FPartly sunny.6 mph32%30.49 "Hg15 mi
12:00 pm45 °FBroken clouds.7 mph34%30.51 "Hg15 mi
11:00 am43 °FPartly sunny.7 mph36%30.52 "Hg15 mi
10:00 am39 °FPartly sunny.5 mph45%30.53 "Hg15 mi
9:00 am36 °FPassing clouds.7 mph52%30.52 "Hg15 mi
8:00 am34 °FPassing clouds.6 mph70%30.50 "Hg15 mi
7:00 am27 °FPartly sunny.No wind80%30.47 "Hg15 mi
Weather by CustomWeather, © 2017

See weather overviewHow to use our weather pages